Time,TemperatureF,DewpointF,PressureIn,WindDirection,WindDirectionDegrees,WindSpeedMPH,WindSpeedGustMPH,Humidity,HourlyPrecipIn,Conditions,Clouds,dailyrainin,SoftwareType,DateUTC
2013-10-08 00:09:00,55.0,54.4,30.01,NNW,337,0.0,-999.0,98,-99.99,,,0.00,Acu-Link.com,2013-10-08 05:09:00,
2013-10-08 00:25:00,55.6,55.0,30.01,NNE,22,1.7,-999.0,98,-99.99,,,0.00,Acu-Link.com,2013-10-08 05:25:00,
2013-10-08 00:40:00,56.5,55.9,30.01,West,270,1.7,-999.0,98,-99.99,,,0.00,Acu-Link.com,2013-10-08 05:40:00,
2013-10-08 00:55:00,56.5,55.9,30.00,NNE,22,3.7,-999.0,98,-99.99,,,0.00,Acu-Link.com,2013-10-08 05:55:00,
2013-10-08 01:11:00,56.7,56.1,30.00,NW,315,2.2,-999.0,98,-99.99,,,0.00,Acu-Link.com,2013-10-08 06:11:00,
2013-10-08 01:27:00,57.0,56.4,30.00,West,270,1.7,-999.0,98,-99.99,,,0.00,Acu-Link.com,2013-10-08 06:27:00,
2013-10-08 01:42:00,56.5,55.9,30.00,WNW,292,0.0,-999.0,98,-99.99,,,0.00,Acu-Link.com,2013-10-08 06:42:00,
2013-10-08 01:58:00,56.7,56.1,30.00,WSW,247,0.0,-999.0,98,-99.99,,,0.00,Acu-Link.com,2013-10-08 06:58:00,
2013-10-08 02:13:00,56.3,55.7,30.01,West,270,1.7,-999.0,98,-99.99,,,0.00,Acu-Link.com,2013-10-08 07:13:00,
2013-10-08 02:28:00,55.6,55.0,30.00,NNW,337,1.7,-999.0,98,-99.99,,,0.00,Acu-Link.com,2013-10-08 07:28:00,
2013-10-08 02:43:00,55.4,54.8,30.01,East,90,0.0,-999.0,98,-99.99,,,0.00,Acu-Link.com,2013-10-08 07:43:00,
2013-10-08 02:58:00,55.4,54.8,30.00,ESE,112,1.1,-999.0,98,-99.99,,,0.00,Acu-Link.com,2013-10-08 07:58:00,
2013-10-08 03:14:00,55.2,54.6,30.01,West,270,0.0,-999.0,98,-99.99,,,0.00,Acu-Link.com,2013-10-08 08:14:00,
2013-10-08 03:29:00,55.4,54.8,30.00,NW,315,1.1,-999.0,98,-99.99,,,0.00,Acu-Link.com,2013-10-08 08:29:00,
2013-10-08 03:45:00,54.9,54.3,30.00,West,270,1.7,-999.0,98,-99.99,,,0.00,Acu-Link.com,2013-10-08 08:45:00,
2013-10-08 04:00:00,54.9,54.3,30.01,NNW,337,2.2,-999.0,98,-99.99,,,0.00,Acu-Link.com,2013-10-08 09:00:00,
2013-10-08 04:15:00,54.1,53.5,30.01,WNW,292,0.0,-999.0,98,-99.99,,,0.00,Acu-Link.com,2013-10-08 09:15:00,
2013-10-08 04:30:00,53.4,52.8,30.00,ENE,67,0.0,-999.0,98,-99.99,,,0.00,Acu-Link.com,2013-10-08 09:30:00,
2013-10-08 04:45:00,51.3,50.8,30.01,NNE,22,1.1,-999.0,98,-99.99,,,0.00,Acu-Link.com,2013-10-08 09:45:00,
2013-10-08 05:00:00,51.4,50.9,30.01,North,0,2.7,-999.0,98,-99.99,,,0.00,Acu-Link.com,2013-10-08 10:00:00,
2013-10-08 05:16:00,52.2,51.7,30.01,WNW,292,1.1,-999.0,98,-99.99,,,0.00,Acu-Link.com,2013-10-08 10:16:00,
2013-10-08 05:31:00,52.0,51.5,30.01,NE,45,1.1,-999.0,98,-99.99,,,0.00,Acu-Link.com,2013-10-08 10:31:00,
2013-10-08 05:46:00,51.6,51.1,30.01,North,0,0.0,-999.0,98,-99.99,,,0.00,Acu-Link.com,2013-10-08 10:46:00,
2013-10-08 06:01:00,51.3,50.8,30.01,NNW,337,0.0,-999.0,98,-99.99,,,0.00,Acu-Link.com,2013-10-08 11:01:00,
2013-10-08 06:16:00,50.9,50.4,30.02,NW,315,0.0,-999.0,98,-99.99,,,0.00,Acu-Link.com,2013-10-08 11:16:00,
2013-10-08 06:31:00,50.2,49.7,30.02,North,0,0.0,-999.0,98,-99.99,,,0.00,Acu-Link.com,2013-10-08 11:31:00,
2013-10-08 06:46:00,49.8,49.3,30.01,NW,315,0.0,-999.0,98,-99.99,,,0.00,Acu-Link.com,2013-10-08 11:46:00,
2013-10-08 07:01:00,49.8,49.3,30.01,NW,315,0.0,-999.0,98,-99.99,,,0.00,Acu-Link.com,2013-10-08 12:01:00,
2013-10-08 07:17:00,50.2,49.7,30.01,West,270,1.7,-999.0,98,-99.99,,,0.00,Acu-Link.com,2013-10-08 12:17:00,
2013-10-08 07:32:00,50.9,50.4,30.01,NNE,22,2.2,-999.0,98,-99.99,,,0.00,Acu-Link.com,2013-10-08 12:32:00,
2013-10-08 07:47:00,51.8,51.3,30.02,ENE,67,0.0,-999.0,98,-99.99,,,0.00,Acu-Link.com,2013-10-08 12:47:00,
2013-10-08 08:02:00,53.1,52.5,30.02,North,0,3.2,-999.0,98,-99.99,,,0.00,Acu-Link.com,2013-10-08 13:02:00,
2013-10-08 08:17:00,54.3,53.7,30.02,West,270,0.0,-999.0,98,-99.99,,,0.00,Acu-Link.com,2013-10-08 13:17:00,
2013-10-08 08:32:00,55.2,54.6,30.02,East,90,1.7,-999.0,98,-99.99,,,0.00,Acu-Link.com,2013-10-08 13:32:00,
2013-10-08 08:47:00,56.8,56.2,30.01,NE,45,2.2,-999.0,98,-99.99,,,0.00,Acu-Link.com,2013-10-08 13:47:00,
2013-10-08 09:02:00,57.7,57.1,30.01,South,180,1.7,-999.0,98,-99.99,,,0.00,Acu-Link.com,2013-10-08 14:02:00,
2013-10-08 09:18:00,58.8,58.2,30.01,West,270,2.2,-999.0,98,-99.99,,,0.00,Acu-Link.com,2013-10-08 14:18:00,
2013-10-08 09:33:00,59.7,59.1,30.02,ESE,112,2.7,-999.0,98,-99.99,,,0.00,Acu-Link.com,2013-10-08 14:33:00,
2013-10-08 09:48:00,61.0,60.4,30.02,NE,45,2.7,-999.0,98,-99.99,,,0.00,Acu-Link.com,2013-10-08 14:48:00,
2013-10-08 10:03:00,61.5,60.9,30.02,NE,45,2.2,-999.0,98,-99.99,,,0.00,Acu-Link.com,2013-10-08 15:03:00,
2013-10-08 10:18:00,62.4,61.8,30.02,NE,45,3.2,-999.0,98,-99.99,,,0.00,Acu-Link.com,2013-10-08 15:18:00,
2013-10-08 10:33:00,64.2,63.6,30.02,NE,45,2.7,-999.0,98,-99.99,,,0.00,Acu-Link.com,2013-10-08 15:33:00,
2013-10-08 10:48:00,64.9,64.3,30.02,NE,45,4.7,-999.0,98,-99.99,,,0.00,Acu-Link.com,2013-10-08 15:48:00,
2013-10-08 11:03:00,66.0,65.4,30.02,North,0,2.7,-999.0,98,-99.99,,,0.00,Acu-Link.com,2013-10-08 16:03:00,
2013-10-08 11:18:00,67.5,66.9,30.01,NNE,22,2.2,-999.0,98,-99.99,,,0.00,Acu-Link.com,2013-10-08 16:18:00,
2013-10-08 11:34:00,68.2,67.6,30.02,NW,315,2.2,-999.0,98,-99.99,,,0.00,Acu-Link.com,2013-10-08 16:34:00,
2013-10-08 11:49:00,69.1,68.5,30.02,SW,225,0.0,-999.0,98,-99.99,,,0.00,Acu-Link.com,2013-10-08 16:49:00,
2013-10-08 12:19:00,71.8,71.2,30.01,ENE,67,2.2,-999.0,98,-99.99,,,0.00,Acu-Link.com,2013-10-08 17:19:00,
2013-10-08 12:34:00,72.1,71.5,30.00,WNW,292,4.7,-999.0,98,-99.99,,,0.00,Acu-Link.com,2013-10-08 17:34:00,
2013-10-08 12:49:00,71.6,71.0,30.00,NW,315,4.7,-999.0,98,-99.99,,,0.00,Acu-Link.com,2013-10-08 17:49:00,
2013-10-08 13:04:00,73.6,73.0,29.99,East,90,2.7,-999.0,98,-99.99,,,0.00,Acu-Link.com,2013-10-08 18:04:00,
2013-10-08 13:19:00,73.8,73.2,29.98,NW,315,3.7,-999.0,98,-99.99,,,0.00,Acu-Link.com,2013-10-08 18:19:00,
2013-10-08 13:34:00,73.8,73.2,29.98,North,0,4.2,-999.0,98,-99.99,,,0.00,Acu-Link.com,2013-10-08 18:34:00,
2013-10-08 13:50:00,73.4,72.8,29.97,NW,315,4.2,-999.0,98,-99.99,,,0.00,Acu-Link.com,2013-10-08 18:50:00,
2013-10-08 14:05:00,75.0,74.4,29.97,NE,45,6.3,-999.0,98,-99.99,,,0.00,Acu-Link.com,2013-10-08 19:05:00,
2013-10-08 14:20:00,77.0,76.4,29.96,WNW,292,4.2,-999.0,98,-99.99,,,0.00,Acu-Link.com,2013-10-08 19:20:00,
2013-10-08 14:35:00,76.8,76.2,29.95,NW,315,7.3,-999.0,98,-99.99,,,0.00,Acu-Link.com,2013-10-08 19:35:00,
2013-10-08 14:51:00,77.7,77.1,29.95,NNE,22,7.8,-999.0,98,-99.99,,,0.00,Acu-Link.com,2013-10-08 19:51:00,
2013-10-08 15:06:00,77.7,77.1,29.96,ENE,67,6.8,-999.0,98,-99.99,,,0.00,Acu-Link.com,2013-10-08 20:06:00,
2013-10-08 15:21:00,77.2,76.6,29.95,NNE,22,7.8,-999.0,98,-99.99,,,0.00,Acu-Link.com,2013-10-08 20:21:00,
2013-10-08 15:36:00,78.1,77.5,29.96,WSW,247,1.1,-999.0,98,-99.99,,,0.00,Acu-Link.com,2013-10-08 20:36:00,
2013-10-08 15:51:00,76.8,76.2,29.95,West,270,3.2,-999.0,98,-99.99,,,0.00,Acu-Link.com,2013-10-08 20:51:00,
2013-10-08 16:06:00,78.8,78.2,29.95,NE,45,2.7,-999.0,98,-99.99,,,0.00,Acu-Link.com,2013-10-08 21:06:00,
2013-10-08 16:21:00,77.7,77.1,29.95,NNE,22,4.7,-999.0,98,-99.99,,,0.00,Acu-Link.com,2013-10-08 21:21:00,
2013-10-08 16:36:00,77.7,77.1,29.95,NNE,22,1.7,-999.0,98,-99.99,,,0.00,Acu-Link.com,2013-10-08 21:36:00,
2013-10-08 16:51:00,79.7,79.1,29.95,East,90,3.2,-999.0,98,-99.99,,,0.00,Acu-Link.com,2013-10-08 21:51:00,
2013-10-08 17:07:00,77.7,77.1,29.95,WNW,292,2.7,-999.0,98,-99.99,,,0.00,Acu-Link.com,2013-10-08 22:07:00,
2013-10-08 17:22:00,78.3,77.7,29.95,NE,45,3.7,-999.0,98,-99.99,,,0.00,Acu-Link.com,2013-10-08 22:22:00,
2013-10-08 17:37:00,76.6,76.0,29.95,WNW,292,2.7,-999.0,98,-99.99,,,0.00,Acu-Link.com,2013-10-08 22:37:00,
2013-10-08 17:52:00,77.5,76.9,29.95,SW,225,0.0,-999.0,98,-99.99,,,0.00,Acu-Link.com,2013-10-08 22:52:00,
2013-10-08 18:07:00,75.0,74.4,29.95,NW,315,0.0,-999.0,98,-99.99,,,0.00,Acu-Link.com,2013-10-08 23:07:00,
2013-10-08 18:22:00,72.0,71.4,29.95,ENE,67,0.0,-999.0,98,-99.99,,,0.00,Acu-Link.com,2013-10-08 23:22:00,
2013-10-08 18:38:00,68.4,67.8,29.95,ENE,67,0.0,-999.0,98,-99.99,,,0.00,Acu-Link.com,2013-10-08 23:38:00,
2013-10-08 18:53:00,64.8,64.2,29.95,NW,315,0.0,-999.0,98,-99.99,,,0.00,Acu-Link.com,2013-10-08 23:53:00,
2013-10-08 19:08:00,63.1,62.5,29.96,WNW,292,0.0,-999.0,98,-99.99,,,0.00,Acu-Link.com,2013-10-09 00:08:00,
2013-10-08 19:23:00,61.7,61.1,29.96,NNE,22,0.0,-999.0,98,-99.99,,,0.00,Acu-Link.com,2013-10-09 00:23:00,
2013-10-08 19:38:00,60.4,59.8,29.96,East,90,0.0,-999.0,98,-99.99,,,0.00,Acu-Link.com,2013-10-09 00:38:00,
2013-10-08 19:53:00,59.5,58.9,29.96,WNW,292,0.0,-999.0,98,-99.99,,,0.00,Acu-Link.com,2013-10-09 00:53:00,
2013-10-08 20:08:00,58.1,57.5,29.97,WNW,292,0.0,-999.0,98,-99.99,,,0.00,Acu-Link.com,2013-10-09 01:08:00,
2013-10-08 20:23:00,57.6,57.0,29.97,East,90,0.0,-999.0,98,-99.99,,,0.00,Acu-Link.com,2013-10-09 01:23:00,
2013-10-08 20:38:00,57.2,56.6,29.98,East,90,0.0,-999.0,98,-99.99,,,0.00,Acu-Link.com,2013-10-09 01:38:00,
2013-10-08 20:54:00,56.5,55.9,29.98,ENE,67,0.0,-999.0,98,-99.99,,,0.00,Acu-Link.com,2013-10-09 01:54:00,
2013-10-08 21:09:00,56.1,55.5,29.98,ENE,67,0.0,-999.0,98,-99.99,,,0.00,Acu-Link.com,2013-10-09 02:09:00,
2013-10-08 21:24:00,55.6,55.0,29.99,ENE,67,0.0,-999.0,98,-99.99,,,0.00,Acu-Link.com,2013-10-09 02:24:00,
2013-10-08 21:39:00,55.2,54.6,29.99,ENE,67,0.0,-999.0,98,-99.99,,,0.00,Acu-Link.com,2013-10-09 02:39:00,
2013-10-08 21:54:00,55.0,54.4,29.99,ENE,67,0.0,-999.0,98,-99.99,,,0.00,Acu-Link.com,2013-10-09 02:54:00,
2013-10-08 22:09:00,55.0,54.4,29.99,NNW,337,0.0,-999.0,98,-99.99,,,0.00,Acu-Link.com,2013-10-09 03:09:00,
2013-10-08 22:24:00,54.5,53.9,29.99,ENE,67,0.0,-999.0,98,-99.99,,,0.00,Acu-Link.com,2013-10-09 03:24:00,
2013-10-08 22:39:00,54.0,53.4,30.00,ENE,67,0.0,-999.0,98,-99.99,,,0.00,Acu-Link.com,2013-10-09 03:39:00,
2013-10-08 22:54:00,53.6,53.0,29.99,ENE,67,0.0,-999.0,98,-99.99,,,0.00,Acu-Link.com,2013-10-09 03:54:00,
2013-10-08 23:09:00,53.6,53.0,30.00,NNW,337,0.0,-999.0,98,-99.99,,,0.00,Acu-Link.com,2013-10-09 04:09:00,
2013-10-08 23:25:00,53.4,52.8,30.00,NE,45,0.0,-999.0,98,-99.99,,,0.00,Acu-Link.com,2013-10-09 04:25:00,
2013-10-08 23:40:00,53.1,52.5,30.00,NE,45,0.0,-999.0,98,-99.99,,,0.00,Acu-Link.com,2013-10-09 04:40:00,
2013-10-08 23:55:00,52.7,52.2,29.99,NNE,22,0.0,-999.0,98,-99.99,,,0.00,Acu-Link.com,2013-10-09 04:55:00,